owner,sensor,date,latitude,longitude,air_pressure(mBar),qcFlag 
TABS,ioos:station:wmo:42047:1,2002-05-01T00:09:00Z,27.8966,-93.5973,1009.47,11111222 
TABS,ioos:station:wmo:42047:1,2002-05-01T00:39:00Z,27.8966,-93.5973,1009.54,11111222 
TABS,ioos:station:wmo:42047:1,2002-05-01T01:09:00Z,27.8966,-93.5973,1009.66,11111222 
TABS,ioos:station:wmo:42047:1,2002-05-01T01:39:00Z,27.8966,-93.5973,1009.85,11111222 
TABS,ioos:station:wmo:42047:1,2002-05-01T02:09:00Z,27.8966,-93.5973,1010.04,11111222 
TABS,ioos:station:wmo:42047:1,2002-05-01T02:39:00Z,27.8966,-93.5973,1010.23,11111222 
TABS,ioos:station:wmo:42047:1,2002-05-01T03:09:00Z,27.8966,-93.5973,1010.3,11111222 
TABS,ioos:station:wmo:42047:1,2002-05-01T03:39:00Z,27.8966,-93.5973,1010.36,11111222 
TABS,ioos:station:wmo:42047:1,2002-05-01T04:09:00Z,27.8966,-93.5973,1010.3,11111222 
TABS,ioos:station:wmo:42047:1,2002-05-01T04:39:00Z,27.8966,-93.5973,1010.17,11111222 
TABS,ioos:station:wmo:42047:1,2002-05-01T05:09:00Z,27.8966,-93.5973,1010.11,11111222 
TABS,ioos:station:wmo:42047:1,2002-05-01T05:39:00Z,27.8966,-93.5973,1010.04,11111222 
TABS,ioos:station:wmo:42047:1,2002-05-01T06:09:00Z,27.8966,-93.5973,1009.92,11111222 
TABS,ioos:station:wmo:42047:1,2002-05-01T06:39:00Z,27.8966,-93.5973,1009.47,11111222 
TABS,ioos:station:wmo:42047:1,2002-05-01T07:09:00Z,27.8966,-93.5973,1009.54,11111222 
TABS,ioos:station:wmo:42047:1,2002-05-01T07:39:00Z,27.8966,-93.5973,1009.35,11111222 
TABS,ioos:station:wmo:42047:1,2002-05-01T08:09:00Z,27.8966,-93.5973,1009.28,11111222 
TABS,ioos:station:wmo:42047:1,2002-05-01T08:39:00Z,27.8966,-93.5973,1009.28,11111222 
TABS,ioos:station:wmo:42047:1,2002-05-01T09:09:00Z,27.8966,-93.5973,1009.09,11111222 
TABS,ioos:station:wmo:42047:1,2002-05-01T09:39:00Z,27.8966,-93.5973,1008.96,11111222 
TABS,ioos:station:wmo:42047:1,2002-05-01T10:09:00Z,27.8966,-93.5973,1008.9,11111222 
TABS,ioos:station:wmo:42047:1,2002-05-01T10:39:00Z,27.8966,-93.5973,1008.9,11111222 
TABS,ioos:station:wmo:42047:1,2002-05-01T11:09:00Z,27.8966,-93.5973,1008.71,11111222 
TABS,ioos:station:wmo:42047:1,2002-05-01T11:39:00Z,27.8966,-93.5973,1009.03,11111222 
TABS,ioos:station:wmo:42047:1,2002-05-01T12:09:00Z,27.8966,-93.5973,1009.47,11111222 
TABS,ioos:station:wmo:42047:1,2002-05-01T12:39:00Z,27.8966,-93.5973,1009.6,11111222 
TABS,ioos:station:wmo:42047:1,2002-05-01T13:09:00Z,27.8966,-93.5973,1009.54,11111222 
TABS,ioos:station:wmo:42047:1,2002-05-01T13:39:00Z,27.8966,-93.5973,1009.35,11111222 
TABS,ioos:station:wmo:42047:1,2002-05-01T14:09:00Z,27.8966,-93.5973,1009.73,11111222 
TABS,ioos:station:wmo:42047:1,2002-05-01T14:39:00Z,27.8966,-93.5973,1010.04,11111222 
TABS,ioos:station:wmo:42047:1,2002-05-01T15:09:00Z,27.8966,-93.5973,1009.79,11111222 
TABS,ioos:station:wmo:42047:1,2002-05-01T15:39:00Z,27.8966,-93.5973,1009.66,11111222 
TABS,ioos:station:wmo:42047:1,2002-05-01T16:09:00Z,27.8966,-93.5973,1009.6,11111222 
TABS,ioos:station:wmo:42047:1,2002-05-01T16:39:00Z,27.8966,-93.5973,1009.73,11111222 
TABS,ioos:station:wmo:42047:1,2002-05-01T17:09:00Z,27.8966,-93.5973,1009.66,11111222 
TABS,ioos:station:wmo:42047:1,2002-05-01T17:39:00Z,27.8966,-93.5973,1009.54,11111222 
TABS,ioos:station:wmo:42047:1,2002-05-01T18:09:00Z,27.8966,-93.5973,1009.73,11111222 
TABS,ioos:station:wmo:42047:1,2002-05-01T18:39:00Z,27.8966,-93.5973,1009.28,11111222 
TABS,ioos:station:wmo:42047:1,2002-05-01T19:09:00Z,27.8966,-93.5973,1009.09,11111222 
TABS,ioos:station:wmo:42047:1,2002-05-01T19:39:00Z,27.8966,-93.5973,1008.9,11111222 
TABS,ioos:station:wmo:42047:1,2002-05-01T20:09:00Z,27.8966,-93.5973,1008.58,11111222 
TABS,ioos:station:wmo:42047:1,2002-05-01T20:39:00Z,27.8966,-93.5973,1008.52,11111222 
TABS,ioos:station:wmo:42047:1,2002-05-01T21:09:00Z,27.8966,-93.5973,1008.2,11111222 
TABS,ioos:station:wmo:42047:1,2002-05-01T21:39:00Z,27.8966,-93.5973,1007.95,11111222 
TABS,ioos:station:wmo:42047:1,2002-05-01T22:09:00Z,27.8966,-93.5973,1007.57,11111222 
TABS,ioos:station:wmo:42047:1,2002-05-01T22:39:00Z,27.8966,-93.5973,1007.63,11111222 
TABS,ioos:station:wmo:42047:1,2002-05-01T23:09:00Z,27.8966,-93.5973,1007.44,11111222 
TABS,ioos:station:wmo:42047:1,2002-05-01T23:39:00Z,27.8966,-93.5973,1007.38,11111222 
TABS,ioos:station:wmo:42047:1,2002-05-02T00:09:00Z,27.8966,-93.5973,1007.31,11111222 
TABS,ioos:station:wmo:42047:1,2002-05-02T00:39:00Z,27.8966,-93.5973,1007.44,11111222 
TABS,ioos:station:wmo:42047:1,2002-05-02T01:09:00Z,27.8966,-93.5973,1007.44,11111222 
TABS,ioos:station:wmo:42047:1,2002-05-02T01:39:00Z,27.8966,-93.5973,1007.7,11111222 
TABS,ioos:station:wmo:42047:1,2002-05-02T02:09:00Z,27.8966,-93.5973,1007.76,11111222 
TABS,ioos:station:wmo:42047:1,2002-05-02T02:39:00Z,27.8966,-93.5973,1007.82,11111222 
TABS,ioos:station:wmo:42047:1,2002-05-02T03:09:00Z,27.8966,-93.5973,1007.95,11111222 
TABS,ioos:station:wmo:42047:1,2002-05-02T03:39:00Z,27.8966,-93.5973,1008.01,11111222 
TABS,ioos:station:wmo:42047:1,2002-05-02T04:09:00Z,27.8966,-93.5973,1008.01,11111222 
TABS,ioos:station:wmo:42047:1,2002-05-02T04:39:00Z,27.8966,-93.5973,1007.95,11111222 
TABS,ioos:station:wmo:42047:1,2002-05-02T05:09:00Z,27.8966,-93.5973,1008.14,11111222 
TABS,ioos:station:wmo:42047:1,2002-05-02T05:39:00Z,27.8966,-93.5973,1007.82,11111222 
TABS,ioos:station:wmo:42047:1,2002-05-02T06:09:00Z,27.8966,-93.5973,1007.5,11111222 
TABS,ioos:station:wmo:42047:1,2002-05-02T06:39:00Z,27.8966,-93.5973,1007.44,11111222 
TABS,ioos:station:wmo:42047:1,2002-05-02T07:09:00Z,27.8966,-93.5973,1007.19,11111222 
TABS,ioos:station:wmo:42047:1,2002-05-02T07:39:00Z,27.8966,-93.5973,1006.93,11111222 
TABS,ioos:station:wmo:42047:1,2002-05-02T08:09:00Z,27.8966,-93.5973,1006.62,11111222 
TABS,ioos:station:wmo:42047:1,2002-05-02T08:39:00Z,27.8966,-93.5973,1006.93,11111222 
TABS,ioos:station:wmo:42047:1,2002-05-02T09:09:00Z,27.8966,-93.5973,1007.0,11111222 
TABS,ioos:station:wmo:42047:1,2002-05-02T09:39:00Z,27.8966,-93.5973,1007.25,11111222 
TABS,ioos:station:wmo:42047:1,2002-05-02T10:09:00Z,27.8966,-93.5973,1007.12,11111222 
TABS,ioos:station:wmo:42047:1,2002-05-02T10:39:00Z,27.8966,-93.5973,1007.31,11111222 
TABS,ioos:station:wmo:42047:1,2002-05-02T11:09:00Z,27.8966,-93.5973,1007.38,11111222 
TABS,ioos:station:wmo:42047:1,2002-05-02T11:39:00Z,27.8966,-93.5973,1007.82,11111222 
TABS,ioos:station:wmo:42047:1,2002-05-02T12:09:00Z,27.8966,-93.5973,1008.08,11111222 
TABS,ioos:station:wmo:42047:1,2002-05-02T12:39:00Z,27.8966,-93.5973,1008.14,11111222 
TABS,ioos:station:wmo:42047:1,2002-05-02T13:09:00Z,27.8966,-93.5973,1008.08,11111222 
TABS,ioos:station:wmo:42047:1,2002-05-02T13:39:00Z,27.8966,-93.5973,1008.01,11111222 
TABS,ioos:station:wmo:42047:1,2002-05-02T14:09:00Z,27.8966,-93.5973,1008.2,11111222 
TABS,ioos:station:wmo:42047:1,2002-05-02T14:39:00Z,27.8966,-93.5973,1008.08,11111222 
TABS,ioos:station:wmo:42047:1,2002-05-02T15:09:00Z,27.8966,-93.5973,1008.39,11111222 
TABS,ioos:station:wmo:42047:1,2002-05-02T15:39:00Z,27.8966,-93.5973,1008.39,11111222 
TABS,ioos:station:wmo:42047:1,2002-05-02T16:09:00Z,27.8966,-93.5973,1008.52,11111222 
TABS,ioos:station:wmo:42047:1,2002-05-02T16:39:00Z,27.8966,-93.5973,1008.58,11111222 
TABS,ioos:station:wmo:42047:1,2002-05-02T17:09:00Z,27.8966,-93.5973,1008.58,11111222 
TABS,ioos:station:wmo:42047:1,2002-05-02T17:39:00Z,27.8966,-93.5973,1008.58,11111222 
TABS,ioos:station:wmo:42047:1,2002-05-02T18:09:00Z,27.8966,-93.5973,1008.71,11111222 
TABS,ioos:station:wmo:42047:1,2002-05-02T18:39:00Z,27.8966,-93.5973,1008.71,11111222 
TABS,ioos:station:wmo:42047:1,2002-05-02T19:09:00Z,27.8966,-93.5973,1008.58,11111222 
TABS,ioos:station:wmo:42047:1,2002-05-02T19:39:00Z,27.8966,-93.5973,1008.39,11111222 
TABS,ioos:station:wmo:42047:1,2002-05-02T20:09:00Z,27.8966,-93.5973,1008.14,11111222 
TABS,ioos:station:wmo:42047:1,2002-05-02T20:39:00Z,27.8966,-93.5973,1007.95,11111222 
TABS,ioos:station:wmo:42047:1,2002-05-02T21:09:00Z,27.8966,-93.5973,1007.7,11111222 
TABS,ioos:station:wmo:42047:1,2002-05-02T21:39:00Z,27.8966,-93.5973,1007.57,11111222 
TABS,ioos:station:wmo:42047:1,2002-05-02T22:09:00Z,27.8966,-93.5973,1007.31,11111222 
TABS,ioos:station:wmo:42047:1,2002-05-02T22:39:00Z,27.8966,-93.5973,1007.38,11111222 
TABS,ioos:station:wmo:42047:1,2002-05-02T23:09:00Z,27.8966,-93.5973,1007.7,11111222 
TABS,ioos:station:wmo:42047:1,2002-05-02T23:39:00Z,27.8966,-93.5973,1007.44,11111222 
TABS,ioos:station:wmo:42047:1,2002-05-03T00:09:00Z,27.8966,-93.5973,1007.44,11111222 
TABS,ioos:station:wmo:42047:1,2002-05-03T00:39:00Z,27.8966,-93.5973,1007.63,11111222 
TABS,ioos:station:wmo:42047:1,2002-05-03T01:09:00Z,27.8966,-93.5973,1007.82,11111222 
TABS,ioos:station:wmo:42047:1,2002-05-03T01:39:00Z,27.8966,-93.5973,1008.01,11111222 
TABS,ioos:station:wmo:42047:1,2002-05-03T02:09:00Z,27.8966,-93.5973,1008.2,11111222 
TABS,ioos:station:wmo:42047:1,2002-05-03T02:39:00Z,27.8966,-93.5973,1008.27,11111222 
TABS,ioos:station:wmo:42047:1,2002-05-03T03:09:00Z,27.8966,-93.5973,1008.84,11111222 
TABS,ioos:station:wmo:42047:1,2002-05-03T03:39:00Z,27.8966,-93.5973,1009.03,11111222 
TABS,ioos:station:wmo:42047:1,2002-05-03T04:09:00Z,27.8966,-93.5973,1008.84,11111222 
TABS,ioos:station:wmo:42047:1,2002-05-03T04:39:00Z,27.8966,-93.5973,1008.71,11111222 
TABS,ioos:station:wmo:42047:1,2002-05-03T05:09:00Z,27.8966,-93.5973,1008.84,11111222 
TABS,ioos:station:wmo:42047:1,2002-05-03T05:39:00Z,27.8966,-93.5973,1008.96,11111222 
TABS,ioos:station:wmo:42047:1,2002-05-03T06:09:00Z,27.8966,-93.5973,1008.77,11111222 
TABS,ioos:station:wmo:42047:1,2002-05-03T06:39:00Z,27.8966,-93.5973,1008.71,11111222 
TABS,ioos:station:wmo:42047:1,2002-05-03T07:09:00Z,27.8966,-93.5973,1008.27,11111222 
TABS,ioos:station:wmo:42047:1,2002-05-03T07:39:00Z,27.8966,-93.5973,1008.01,11111222 
TABS,ioos:station:wmo:42047:1,2002-05-03T08:09:00Z,27.8966,-93.5973,1008.14,11111222 
TABS,ioos:station:wmo:42047:1,2002-05-03T08:39:00Z,27.8966,-93.5973,1008.2,11111222 
TABS,ioos:station:wmo:42047:1,2002-05-03T09:09:00Z,27.8966,-93.5973,1008.01,11111222 
TABS,ioos:station:wmo:42047:1,2002-05-03T09:39:00Z,27.8966,-93.5973,1008.14,11111222 
TABS,ioos:station:wmo:42047:1,2002-05-03T10:09:00Z,27.8966,-93.5973,1008.46,11111222 
TABS,ioos:station:wmo:42047:1,2002-05-03T10:39:00Z,27.8966,-93.5973,1008.9,11111222 
TABS,ioos:station:wmo:42047:1,2002-05-03T11:09:00Z,27.8966,-93.5973,1009.09,11111222 
TABS,ioos:station:wmo:42047:1,2002-05-03T11:39:00Z,27.8966,-93.5973,1009.35,11111222 
TABS,ioos:station:wmo:42047:1,2002-05-03T12:09:00Z,27.8966,-93.5973,1009.41,11111222 
TABS,ioos:station:wmo:42047:1,2002-05-03T12:39:00Z,27.8966,-93.5973,1009.92,11111222 
TABS,ioos:station:wmo:42047:1,2002-05-03T13:09:00Z,27.8966,-93.5973,1010.17,11111222 
TABS,ioos:station:wmo:42047:1,2002-05-03T13:39:00Z,27.8966,-93.5973,1010.17,11111222 
TABS,ioos:station:wmo:42047:1,2002-05-03T14:09:00Z,27.8966,-93.5973,1010.23,11111222 
TABS,ioos:station:wmo:42047:1,2002-05-03T14:39:00Z,27.8966,-93.5973,1010.11,11111222 
TABS,ioos:station:wmo:42047:1,2002-05-03T15:09:00Z,27.8966,-93.5973,1010.17,11111222 
TABS,ioos:station:wmo:42047:1,2002-05-03T15:39:00Z,27.8966,-93.5973,1010.55,11111222 
TABS,ioos:station:wmo:42047:1,2002-05-03T16:09:00Z,27.8966,-93.5973,1010.74,11111222 
TABS,ioos:station:wmo:42047:1,2002-05-03T16:39:00Z,27.8966,-93.5973,1011.12,11111222 
TABS,ioos:station:wmo:42047:1,2002-05-03T17:09:00Z,27.8966,-93.5973,1011.63,11111222 
TABS,ioos:station:wmo:42047:1,2002-05-03T17:39:00Z,27.8966,-93.5973,1011.76,11111222 
TABS,ioos:station:wmo:42047:1,2002-05-03T18:09:00Z,27.8966,-93.5973,1011.76,11111222 
TABS,ioos:station:wmo:42047:1,2002-05-03T18:39:00Z,27.8966,-93.5973,1011.63,11111222 
TABS,ioos:station:wmo:42047:1,2002-05-03T19:09:00Z,27.8966,-93.5973,1011.44,11111222 
TABS,ioos:station:wmo:42047:1,2002-05-03T19:39:00Z,27.8966,-93.5973,1011.12,11111222 
TABS,ioos:station:wmo:42047:1,2002-05-03T20:09:00Z,27.8966,-93.5973,1011.06,11111222 
TABS,ioos:station:wmo:42047:1,2002-05-03T20:39:00Z,27.8966,-93.5973,1011.0,11111222 
TABS,ioos:station:wmo:42047:1,2002-05-03T21:09:00Z,27.8966,-93.5973,1010.81,11111222 
TABS,ioos:station:wmo:42047:1,2002-05-03T21:39:00Z,27.8966,-93.5973,1010.42,11111222 
TABS,ioos:station:wmo:42047:1,2002-05-03T22:09:00Z,27.8966,-93.5973,1010.42,11111222 
TABS,ioos:station:wmo:42047:1,2002-05-03T22:39:00Z,27.8966,-93.5973,1010.3,11111222 
TABS,ioos:station:wmo:42047:1,2002-05-03T23:09:00Z,27.8966,-93.5973,1010.11,11111222 
TABS,ioos:station:wmo:42047:1,2002-05-03T23:39:00Z,27.8966,-93.5973,1010.17,11111222 
TABS,ioos:station:wmo:42047:1,2002-05-04T00:09:00Z,27.8966,-93.5973,1010.3,11111222 
TABS,ioos:station:wmo:42047:1,2002-05-04T00:39:00Z,27.8966,-93.5973,1010.62,11111222 
TABS,ioos:station:wmo:42047:1,2002-05-04T01:09:00Z,27.8966,-93.5973,1010.93,11111222 
TABS,ioos:station:wmo:42047:1,2002-05-04T01:39:00Z,27.8966,-93.5973,1011.38,11111222 
TABS,ioos:station:wmo:42047:1,2002-05-04T02:09:00Z,27.8966,-93.5973,1011.63,11111222 
TABS,ioos:station:wmo:42047:1,2002-05-04T02:39:00Z,27.8966,-93.5973,1012.01,11111222 
TABS,ioos:station:wmo:42047:1,2002-05-04T03:09:00Z,27.8966,-93.5973,1012.46,11111222 
TABS,ioos:station:wmo:42047:1,2002-05-04T03:39:00Z,27.8966,-93.5973,1012.65,11111222 
TABS,ioos:station:wmo:42047:1,2002-05-04T04:09:00Z,27.8966,-93.5973,1012.9,11111222 
TABS,ioos:station:wmo:42047:1,2002-05-04T04:39:00Z,27.8966,-93.5973,1012.84,11111222 
TABS,ioos:station:wmo:42047:1,2002-05-04T05:09:00Z,27.8966,-93.5973,1012.77,11111222 
TABS,ioos:station:wmo:42047:1,2002-05-04T05:39:00Z,27.8966,-93.5973,1012.71,11111222 
TABS,ioos:station:wmo:42047:1,2002-05-04T06:09:00Z,27.8966,-93.5973,1012.71,11111222 
TABS,ioos:station:wmo:42047:1,2002-05-04T06:39:00Z,27.8966,-93.5973,1012.65,11111222 
TABS,ioos:station:wmo:42047:1,2002-05-04T07:09:00Z,27.8966,-93.5973,1012.71,11111222 
TABS,ioos:station:wmo:42047:1,2002-05-04T07:39:00Z,27.8966,-93.5973,1012.77,11111222 
TABS,ioos:station:wmo:42047:1,2002-05-04T08:09:00Z,27.8966,-93.5973,1012.84,11111222 
TABS,ioos:station:wmo:42047:1,2002-05-04T08:39:00Z,27.8966,-93.5973,1012.96,11111222 
TABS,ioos:station:wmo:42047:1,2002-05-04T09:09:00Z,27.8966,-93.5973,1012.9,11111222 
TABS,ioos:station:wmo:42047:1,2002-05-04T09:39:00Z,27.8966,-93.5973,1013.22,11111222 
TABS,ioos:station:wmo:42047:1,2002-05-04T10:09:00Z,27.8966,-93.5973,1013.66,11111222 
TABS,ioos:station:wmo:42047:1,2002-05-04T10:39:00Z,27.8966,-93.5973,1013.98,11111222 
TABS,ioos:station:wmo:42047:1,2002-05-04T11:09:00Z,27.8966,-93.5973,1014.36,11111222 
TABS,ioos:station:wmo:42047:1,2002-05-04T11:39:00Z,27.8966,-93.5973,1014.61,11111222 
TABS,ioos:station:wmo:42047:1,2002-05-04T12:09:00Z,27.8966,-93.5973,1015.0,11111222 
TABS,ioos:station:wmo:42047:1,2002-05-04T12:39:00Z,27.8966,-93.5973,1015.38,11111222 
TABS,ioos:station:wmo:42047:1,2002-05-04T13:09:00Z,27.8966,-93.5973,1015.57,11111222 
TABS,ioos:station:wmo:42047:1,2002-05-04T13:39:00Z,27.8966,-93.5973,1015.69,11111222 
TABS,ioos:station:wmo:42047:1,2002-05-04T14:09:00Z,27.8966,-93.5973,1015.76,11111222 
TABS,ioos:station:wmo:42047:1,2002-05-04T14:39:00Z,27.8966,-93.5973,1016.2,11111222 
TABS,ioos:station:wmo:42047:1,2002-05-04T15:09:00Z,27.8966,-93.5973,1016.33,11111222 
TABS,ioos:station:wmo:42047:1,2002-05-04T15:39:00Z,27.8966,-93.5973,1016.46,11111222 
TABS,ioos:station:wmo:42047:1,2002-05-04T16:09:00Z,27.8966,-93.5973,1016.39,11111222 
TABS,ioos:station:wmo:42047:1,2002-05-04T16:39:00Z,27.8966,-93.5973,1016.39,11111222 
TABS,ioos:station:wmo:42047:1,2002-05-04T17:09:00Z,27.8966,-93.5973,1016.58,11111222 
TABS,ioos:station:wmo:42047:1,2002-05-04T17:39:00Z,27.8966,-93.5973,1016.46,11111222 
TABS,ioos:station:wmo:42047:1,2002-05-04T18:09:00Z,27.8966,-93.5973,1016.2,11111222 
TABS,ioos:station:wmo:42047:1,2002-05-04T18:39:00Z,27.8966,-93.5973,1016.2,11111222 
TABS,ioos:station:wmo:42047:1,2002-05-04T19:09:00Z,27.8966,-93.5973,1016.2,11111222 
TABS,ioos:station:wmo:42047:1,2002-05-04T19:39:00Z,27.8966,-93.5973,1015.95,11111222 
TABS,ioos:station:wmo:42047:1,2002-05-04T20:09:00Z,27.8966,-93.5973,1015.69,11111222 
TABS,ioos:station:wmo:42047:1,2002-05-04T20:39:00Z,27.8966,-93.5973,1015.63,11111222 
TABS,ioos:station:wmo:42047:1,2002-05-04T21:09:00Z,27.8966,-93.5973,1015.63,11111222 
TABS,ioos:station:wmo:42047:1,2002-05-04T21:39:00Z,27.8966,-93.5973,1015.5,11111222 
TABS,ioos:station:wmo:42047:1,2002-05-04T22:09:00Z,27.8966,-93.5973,1015.57,11111222 
TABS,ioos:station:wmo:42047:1,2002-05-04T22:39:00Z,27.8966,-93.5973,1015.57,11111222 
TABS,ioos:station:wmo:42047:1,2002-05-04T23:09:00Z,27.8966,-93.5973,1015.5,11111222 
TABS,ioos:station:wmo:42047:1,2002-05-04T23:39:00Z,27.8966,-93.5973,1015.5,11111222 
TABS,ioos:station:wmo:42047:1,2002-05-05T00:09:00Z,27.8966,-93.5973,1015.69,11111222 
TABS,ioos:station:wmo:42047:1,2002-05-05T00:39:00Z,27.8966,-93.5973,1015.76,11111222 
TABS,ioos:station:wmo:42047:1,2002-05-05T01:09:00Z,27.8966,-93.5973,1015.95,11111222 
TABS,ioos:station:wmo:42047:1,2002-05-05T01:39:00Z,27.8966,-93.5973,1016.07,11111222 
TABS,ioos:station:wmo:42047:1,2002-05-05T02:09:00Z,27.8966,-93.5973,1016.39,11111222 
TABS,ioos:station:wmo:42047:1,2002-05-05T02:39:00Z,27.8966,-93.5973,1016.77,11111222 
TABS,ioos:station:wmo:42047:1,2002-05-05T03:09:00Z,27.8966,-93.5973,1017.03,11111222 
TABS,ioos:station:wmo:42047:1,2002-05-05T03:39:00Z,27.8966,-93.5973,1017.22,11111222 
TABS,ioos:station:wmo:42047:1,2002-05-05T04:09:00Z,27.8966,-93.5973,1017.41,11111222 
TABS,ioos:station:wmo:42047:1,2002-05-05T04:39:00Z,27.8966,-93.5973,1017.47,11111222 
TABS,ioos:station:wmo:42047:1,2002-05-05T05:09:00Z,27.8966,-93.5973,1017.6,11111222 
TABS,ioos:station:wmo:42047:1,2002-05-05T05:39:00Z,27.8966,-93.5973,1017.41,11111222 
TABS,ioos:station:wmo:42047:1,2002-05-05T06:09:00Z,27.8966,-93.5973,1017.53,11111222 
TABS,ioos:station:wmo:42047:1,2002-05-05T06:39:00Z,27.8966,-93.5973,1017.47,11111222 
TABS,ioos:station:wmo:42047:1,2002-05-05T07:09:00Z,27.8966,-93.5973,1017.6,11111222 
TABS,ioos:station:wmo:42047:1,2002-05-05T07:39:00Z,27.8966,-93.5973,1017.53,11111222 
TABS,ioos:station:wmo:42047:1,2002-05-05T08:09:00Z,27.8966,-93.5973,1017.66,11111222 
TABS,ioos:station:wmo:42047:1,2002-05-05T08:39:00Z,27.8966,-93.5973,1017.6,11111222 
TABS,ioos:station:wmo:42047:1,2002-05-05T09:09:00Z,27.8966,-93.5973,1017.47,11111222 
TABS,ioos:station:wmo:42047:1,2002-05-05T09:39:00Z,27.8966,-93.5973,1017.22,11111222 
TABS,ioos:station:wmo:42047:1,2002-05-05T10:09:00Z,27.8966,-93.5973,1017.28,11111222 
TABS,ioos:station:wmo:42047:1,2002-05-05T10:39:00Z,27.8966,-93.5973,1017.53,11111222 
TABS,ioos:station:wmo:42047:1,2002-05-05T11:09:00Z,27.8966,-93.5973,1017.92,11111222 
TABS,ioos:station:wmo:42047:1,2002-05-05T11:39:00Z,27.8966,-93.5973,1018.42,11111222 
TABS,ioos:station:wmo:42047:1,2002-05-05T12:09:00Z,27.8966,-93.5973,1018.42,11111222 
TABS,ioos:station:wmo:42047:1,2002-05-05T12:39:00Z,27.8966,-93.5973,1018.8,11111222 
TABS,ioos:station:wmo:42047:1,2002-05-05T13:09:00Z,27.8966,-93.5973,1019.31,11111222 
TABS,ioos:station:wmo:42047:1,2002-05-05T13:39:00Z,27.8966,-93.5973,1019.69,11111222 
TABS,ioos:station:wmo:42047:1,2002-05-05T14:09:00Z,27.8966,-93.5973,1020.2,11111222 
TABS,ioos:station:wmo:42047:1,2002-05-05T14:39:00Z,27.8966,-93.5973,1020.45,11111222 
TABS,ioos:station:wmo:42047:1,2002-05-05T15:09:00Z,27.8966,-93.5973,1020.45,11111222 
TABS,ioos:station:wmo:42047:1,2002-05-05T15:39:00Z,27.8966,-93.5973,1020.58,11111222 
TABS,ioos:station:wmo:42047:1,2002-05-05T16:09:00Z,27.8966,-93.5973,1020.71,11111222 
TABS,ioos:station:wmo:42047:1,2002-05-05T16:39:00Z,27.8966,-93.5973,1020.83,11111222 
TABS,ioos:station:wmo:42047:1,2002-05-05T17:09:00Z,27.8966,-93.5973,1020.64,11111222 
TABS,ioos:station:wmo:42047:1,2002-05-05T17:39:00Z,27.8966,-93.5973,1020.45,11111222 
TABS,ioos:station:wmo:42047:1,2002-05-05T18:09:00Z,27.8966,-93.5973,1020.07,11111222 
TABS,ioos:station:wmo:42047:1,2002-05-05T18:39:00Z,27.8966,-93.5973,1019.63,11111222 
TABS,ioos:station:wmo:42047:1,2002-05-05T19:09:00Z,27.8966,-93.5973,1019.5,11111222 
TABS,ioos:station:wmo:42047:1,2002-05-05T19:39:00Z,27.8966,-93.5973,1019.31,11111222 
TABS,ioos:station:wmo:42047:1,2002-05-05T20:09:00Z,27.8966,-93.5973,1018.87,11111222 
TABS,ioos:station:wmo:42047:1,2002-05-05T20:39:00Z,27.8966,-93.5973,1018.61,11111222 
TABS,ioos:station:wmo:42047:1,2002-05-05T21:09:00Z,27.8966,-93.5973,1018.23,11111222 
TABS,ioos:station:wmo:42047:1,2002-05-05T21:39:00Z,27.8966,-93.5973,1018.11,11111222 
TABS,ioos:station:wmo:42047:1,2002-05-05T22:09:00Z,27.8966,-93.5973,1018.04,11111222 
TABS,ioos:station:wmo:42047:1,2002-05-05T22:39:00Z,27.8966,-93.5973,1017.92,11111222 
TABS,ioos:station:wmo:42047:1,2002-05-05T23:09:00Z,27.8966,-93.5973,1017.85,11111222 
TABS,ioos:station:wmo:42047:1,2002-05-05T23:39:00Z,27.8966,-93.5973,1017.85,11111222 
TABS,ioos:station:wmo:42047:1,2002-05-06T00:09:00Z,27.8966,-93.5973,1017.98,11111222 
TABS,ioos:station:wmo:42047:1,2002-05-06T00:39:00Z,27.8966,-93.5973,1018.04,11111222 
TABS,ioos:station:wmo:42047:1,2002-05-06T01:09:00Z,27.8966,-93.5973,1017.98,11111222 
TABS,ioos:station:wmo:42047:1,2002-05-06T01:39:00Z,27.8966,-93.5973,1018.11,11111222 
TABS,ioos:station:wmo:42047:1,2002-05-06T02:09:00Z,27.8966,-93.5973,1018.23,11111222 
TABS,ioos:station:wmo:42047:1,2002-05-06T02:39:00Z,27.8966,-93.5973,1018.3,11111222 
TABS,ioos:station:wmo:42047:1,2002-05-06T03:09:00Z,27.8966,-93.5973,1018.36,11111222 
TABS,ioos:station:wmo:42047:1,2002-05-06T03:39:00Z,27.8966,-93.5973,1018.74,11111222 
TABS,ioos:station:wmo:42047:1,2002-05-06T04:09:00Z,27.8966,-93.5973,1018.87,11111222 
TABS,ioos:station:wmo:42047:1,2002-05-06T04:39:00Z,27.8966,-93.5973,1019.06,11111222 
TABS,ioos:station:wmo:42047:1,2002-05-06T05:09:00Z,27.8966,-93.5973,1018.8,11111222 
TABS,ioos:station:wmo:42047:1,2002-05-06T05:39:00Z,27.8966,-93.5973,1018.61,11111222 
TABS,ioos:station:wmo:42047:1,2002-05-06T06:09:00Z,27.8966,-93.5973,1018.42,11111222 
TABS,ioos:station:wmo:42047:1,2002-05-06T06:39:00Z,27.8966,-93.5973,1018.36,11111222 
TABS,ioos:station:wmo:42047:1,2002-05-06T07:09:00Z,27.8966,-93.5973,1018.36,11111222 
TABS,ioos:station:wmo:42047:1,2002-05-06T07:39:00Z,27.8966,-93.5973,1017.98,11111222 
TABS,ioos:station:wmo:42047:1,2002-05-06T08:09:00Z,27.8966,-93.5973,1017.79,11111222 
TABS,ioos:station:wmo:42047:1,2002-05-06T08:39:00Z,27.8966,-93.5973,1017.53,11111222 
TABS,ioos:station:wmo:42047:1,2002-05-06T09:09:00Z,27.8966,-93.5973,1017.22,11111222 
TABS,ioos:station:wmo:42047:1,2002-05-06T09:39:00Z,27.8966,-93.5973,1016.84,11111222 
TABS,ioos:station:wmo:42047:1,2002-05-06T10:09:00Z,27.8966,-93.5973,1016.9,11111222 
TABS,ioos:station:wmo:42047:1,2002-05-06T10:39:00Z,27.8966,-93.5973,1016.65,11111222 
TABS,ioos:station:wmo:42047:1,2002-05-06T11:09:00Z,27.8966,-93.5973,1016.84,11111222 
TABS,ioos:station:wmo:42047:1,2002-05-06T11:39:00Z,27.8966,-93.5973,1017.09,11111222 
TABS,ioos:station:wmo:42047:1,2002-05-06T12:09:00Z,27.8966,-93.5973,1017.53,11111222 
TABS,ioos:station:wmo:42047:1,2002-05-06T12:39:00Z,27.8966,-93.5973,1017.72,11111222 
TABS,ioos:station:wmo:42047:1,2002-05-06T13:09:00Z,27.8966,-93.5973,1017.98,11111222 
TABS,ioos:station:wmo:42047:1,2002-05-06T13:39:00Z,27.8966,-93.5973,1017.79,11111222 
TABS,ioos:station:wmo:42047:1,2002-05-06T14:09:00Z,27.8966,-93.5973,1017.85,11111222 
TABS,ioos:station:wmo:42047:1,2002-05-06T14:39:00Z,27.8966,-93.5973,1018.04,11111222 
TABS,ioos:station:wmo:42047:1,2002-05-06T15:09:00Z,27.8966,-93.5973,1018.55,11111222 
TABS,ioos:station:wmo:42047:1,2002-05-06T15:39:00Z,27.8966,-93.5973,1018.8,11111222 
TABS,ioos:station:wmo:42047:1,2002-05-06T16:09:00Z,27.8966,-93.5973,1018.61,11111222 
TABS,ioos:station:wmo:42047:1,2002-05-06T16:39:00Z,27.8966,-93.5973,1018.3,11111222 
TABS,ioos:station:wmo:42047:1,2002-05-06T17:09:00Z,27.8966,-93.5973,1018.49,11111222 
TABS,ioos:station:wmo:42047:1,2002-05-06T17:39:00Z,27.8966,-93.5973,1018.49,11111222 
TABS,ioos:station:wmo:42047:1,2002-05-06T18:09:00Z,27.8966,-93.5973,1018.36,11111222 
TABS,ioos:station:wmo:42047:1,2002-05-06T18:39:00Z,27.8966,-93.5973,1018.23,11111222 